Location: Bayshore Village Mobile Home Park
(26.6945°N, 81.8642°W)
Time: 16:00:44
(UTC+00:00)

Cosmos 1331 Rocket - Pass Details

Date: 17 June 2021
Orbit: 749 x 778 km, 74.0° (Epoch: 27 July)

Event Time Altitude Azimuth Distance (km) Brightness Sun altitude
Exits shadow 02:22:26 47° 90° (E) 997 4.2 -22.7°
Drops below altitude 10° 02:27:09 10° 28° (NNE) 2,306 6.6 -23.5°
Sets 02:29:36 0° 23° (NNE) 3,239 7.5 -23.9°
